Location: Grand Lay
(47.3253°N, 0.9468°E)
Time: 23:03:19
(UTC+00:00)

Lacrosse 5 rocket - Pass Details

Date: 18 January 2026
Orbit: 401 x 481 km, 57.0° (Epoch: 16 February)

Event Time Altitude Azimuth Distance (km) Brightness Sun altitude
Exits shadow 05:21:38 19° 9° (N) 1,223 3.1 -22.4°
Drops below altitude 10° 05:24:14 10° 52° (NE) 1,684 4.4 -22.0°
Sets 05:26:53 0° 71° (ENE) 2,564 5.8 -21.5°
